Change the Weather History Date:

Thursday, March 7, 2013

  Actual Average (KABE) Record (KABE)
Temperature  
Mean Temperature 38 °F 36 °F  
Max Temperature 42 °F 46 °F 70 °F (2009)
Min Temperature 33 °F 26 °F 1 °F (1960)
Degree Days  
Heating Degree Days 28 29  
Month to date heating degree days 210  
Since 1 July heating degree days 4519  
Cooling Degree Days 0 0  
Month to date cooling degree days 0  
Year to date cooling degree days 0  
Moisture  
Dew Point 22 °F    
Average Humidity 54    
Maximum Humidity 65    
Minimum Humidity 42    
Precipitation  
Precipitation 0.00 in 0.10 in 1.51 in (1967)
Month to date precipitation 0.69  
Year to date precipitation 6.42  
Snow  
Snow 0.00 in 0.20 in 7.50 in (1915)
Month to date snowfall 1.6  
Since 1 July snowfall 28.6  
Snow Depth -    
Sea Level Pressure  
Sea Level Pressure 30.06 in    
Wind  
Wind Speed 12 mph (NNW)    
Max Wind Speed 20 mph    
Max Gust Speed 30 mph    
Visibility 10 miles    
Events      
T = Trace of Precipitation, MM = Missing Value Source: NWS Daily Summary

Daily Weather History Graph

Daily Weather History Graph

Search for Another Location

Airport or City:

Trip Planner

Search our weather history database for the weather conditions in past years. The results will help you decide how hot, cold, wet, or windy it might be!

Date:

Astronomy

Mar. 07, 2013 Rise Set
Actual Time 6:26 AM EST 6:00 PM EST
Civil Twilight 5:58 AM EST 6:27 PM EST
Nautical Twilight 5:27 AM EST 6:59 PM EST
Astronomical Twilight 4:55 AM EST 7:31 PM EST
Moon 3:24 AM EST (3/7) 1:44 PM EST (3/7)
Length of Visible Light 12h 28m
Length of Day
11h 34m
Waning Crescent, 20% of the Moon is Illuminated
Mar 7
Waning Crescent
Mar 11
New
Mar 19
First Quarter
Mar 27
Full
Apr 3
Last Quarter

Hourly Weather History & Observations

Time (EST) Temp. Windchill Dew Point Humidity Pressure Visibility Wind Dir Wind Speed Gust Speed Precip Events Conditions
12:15 AM 35.6 °F 27.5 °F 23.0 °F 60% 29.99 in 10.0 mi NNE 11.5 mph 25.3 mph N/A   Overcast
12:35 AM 35.6 °F 28.0 °F 23.0 °F 60% 29.98 in 10.0 mi North 10.4 mph 21.9 mph N/A   Overcast
12:55 AM 35.6 °F 27.5 °F 23.0 °F 60% 29.99 in 10.0 mi North 11.5 mph 19.6 mph N/A   Mostly Cloudy
1:15 AM 35.6 °F 26.6 °F 23.0 °F 60% 29.99 in 10.0 mi North 13.8 mph 21.9 mph N/A   Mostly Cloudy
1:35 AM 35.6 °F 28.0 °F 23.0 °F 60% 29.99 in 10.0 mi North 10.4 mph 19.6 mph N/A   Scattered Clouds
1:55 AM 35.6 °F 28.0 °F 23.0 °F 60% 30.00 in 10.0 mi North 10.4 mph 19.6 mph N/A   Mostly Cloudy
2:15 AM 35.6 °F 27.1 °F 23.0 °F 60% 30.00 in 10.0 mi North 12.7 mph 21.9 mph N/A   Overcast
2:35 AM 35.6 °F 26.2 °F 23.0 °F 60% 29.99 in 10.0 mi North 15.0 mph 19.6 mph N/A   Overcast
2:55 AM 35.6 °F 27.5 °F 23.0 °F 60% 30.00 in 10.0 mi North 11.5 mph 18.4 mph N/A   Overcast
3:15 AM 35.6 °F 28.0 °F 23.0 °F 60% 30.00 in 10.0 mi North 10.4 mph - N/A   Overcast
3:35 AM 35.6 °F 28.0 °F 23.0 °F 60% 30.00 in 10.0 mi North 10.4 mph 17.3 mph N/A   Overcast
3:55 AM 35.6 °F 26.2 °F 21.2 °F 56% 30.00 in 10.0 mi NNE 15.0 mph 20.7 mph N/A   Overcast
4:15 AM 33.8 °F 27.0 °F 21.2 °F 60% 30.01 in 10.0 mi North 8.1 mph - N/A   Scattered Clouds
4:35 AM 33.8 °F 26.4 °F 23.0 °F 65% 30.01 in 10.0 mi North 9.2 mph - N/A   Clear
4:55 AM 33.8 °F 26.4 °F 21.2 °F 60% 30.01 in 10.0 mi North 9.2 mph - N/A   Scattered Clouds
5:15 AM 33.8 °F 26.4 °F 21.2 °F 60% 30.01 in 10.0 mi North 9.2 mph - N/A   Scattered Clouds
5:35 AM 33.8 °F 25.8 °F 21.2 °F 60% 30.01 in 10.0 mi North 10.4 mph - N/A   Clear
5:55 AM 33.8 °F 25.8 °F 21.2 °F 60% 30.02 in 10.0 mi North 10.4 mph - N/A   Clear
6:15 AM 33.8 °F 27.0 °F 21.2 °F 60% 30.02 in 10.0 mi North 8.1 mph - N/A   Scattered Clouds
6:35 AM 33.8 °F 26.4 °F 21.2 °F 60% 30.03 in 10.0 mi North 9.2 mph - N/A   Overcast
6:55 AM 33.8 °F 26.4 °F 21.2 °F 60% 30.03 in 10.0 mi North 9.2 mph - N/A   Overcast
7:15 AM 35.6 °F 28.6 °F 21.2 °F 56% 30.04 in 10.0 mi North 9.2 mph - N/A   Overcast
7:35 AM 35.6 °F 31.7 °F 23.0 °F 60% 30.04 in 10.0 mi North 4.6 mph - N/A   Overcast
7:55 AM 35.6 °F 29.9 °F 23.0 °F 60% 30.05 in 10.0 mi North 6.9 mph - N/A   Overcast
8:15 AM 35.6 °F 26.6 °F 23.0 °F 60% 30.06 in 10.0 mi North 13.8 mph 18.4 mph N/A   Overcast
8:35 AM 35.6 °F 27.1 °F 23.0 °F 60% 30.07 in 10.0 mi North 12.7 mph 17.3 mph N/A   Overcast
8:55 AM 35.6 °F 26.6 °F 23.0 °F 60% 30.07 in 10.0 mi North 13.8 mph 21.9 mph N/A   Overcast
9:15 AM 37.4 °F 30.8 °F 23.0 °F 56% 30.08 in 10.0 mi North 9.2 mph 19.6 mph N/A   Overcast
9:35 AM 37.4 °F 28.9 °F 23.0 °F 56% 30.08 in 10.0 mi North 13.8 mph - N/A   Overcast
9:55 AM 37.4 °F 29.3 °F 23.0 °F 56% 30.08 in 10.0 mi North 12.7 mph 17.3 mph N/A   Overcast
10:15 AM 39.2 °F 31.2 °F 23.0 °F 52% 30.08 in 10.0 mi North 13.8 mph 19.6 mph N/A   Overcast
10:35 AM 41.0 °F 33.5 °F 23.0 °F 49% 30.08 in 10.0 mi NW 13.8 mph 18.4 mph N/A   Overcast
10:55 AM 41.0 °F 33.1 °F 23.0 °F 49% 30.08 in 10.0 mi NW 15.0 mph 20.7 mph N/A   Overcast
11:15 AM 41.0 °F 33.5 °F 23.0 °F 49% 30.07 in 10.0 mi North 13.8 mph 19.6 mph N/A   Overcast
11:55 AM 42.8 °F 37.0 °F 23.0 °F 46% 30.07 in 10.0 mi NW 10.4 mph 18.4 mph N/A   Overcast
12:15 PM 42.8 °F 38.0 °F 23.0 °F 46% 30.07 in 10.0 mi NW 8.1 mph 18.4 mph N/A   Overcast
12:35 PM 42.8 °F 36.2 °F 23.0 °F 46% 30.06 in 10.0 mi NW 12.7 mph 19.6 mph N/A   Overcast
12:55 PM 42.8 °F 36.2 °F 23.0 °F 46% 30.06 in 10.0 mi NNW 12.7 mph 17.3 mph N/A   Overcast
1:15 PM 42.8 °F 36.2 °F 23.0 °F 46% 30.05 in 10.0 mi NNW 12.7 mph 17.3 mph N/A   Overcast
1:35 PM 42.8 °F 35.4 °F 23.0 °F 46% 30.05 in 10.0 mi NW 15.0 mph 19.6 mph N/A   Overcast
1:55 PM 42.8 °F 36.2 °F 21.2 °F 42% 30.05 in 10.0 mi NNW 12.7 mph 19.6 mph N/A   Overcast
2:15 PM 42.8 °F 34.8 °F 21.2 °F 42% 30.05 in 10.0 mi NW 17.3 mph 21.9 mph N/A   Overcast
2:35 PM 42.8 °F 35.4 °F 23.0 °F 46% 30.06 in 10.0 mi NNW 15.0 mph 19.6 mph N/A   Overcast
2:55 PM 42.8 °F 35.8 °F 23.0 °F 46% 30.06 in 10.0 mi NW 13.8 mph 20.7 mph N/A   Mostly Cloudy
3:15 PM 42.8 °F 35.8 °F 23.0 °F 46% 30.07 in 10.0 mi NW 13.8 mph 28.8 mph N/A   Scattered Clouds
3:35 PM 42.8 °F 36.2 °F 21.2 °F 42% 30.07 in 10.0 mi NNW 12.7 mph 17.3 mph N/A   Mostly Cloudy
3:55 PM 42.8 °F 36.6 °F 21.2 °F 42% 30.07 in 10.0 mi NW 11.5 mph 17.3 mph N/A   Overcast
4:15 PM 41.0 °F 34.3 °F 21.2 °F 45% 30.08 in 10.0 mi NNW 11.5 mph - N/A   Overcast
4:35 PM 41.0 °F 32.8 °F 21.2 °F 45% 30.08 in 10.0 mi NW 16.1 mph 21.9 mph N/A   Scattered Clouds
4:55 PM 41.0 °F 33.9 °F 21.2 °F 45% 30.09 in 10.0 mi NNW 12.7 mph 24.2 mph N/A   Clear
5:15 PM 41.0 °F 34.3 °F 21.2 °F 45% 30.09 in 10.0 mi North 11.5 mph 20.7 mph N/A   Scattered Clouds
5:35 PM 41.0 °F 34.3 °F 21.2 °F 45% 30.10 in 10.0 mi North 11.5 mph - N/A   Mostly Cloudy
5:55 PM 39.2 °F 30.5 °F 23.0 °F 52% 30.11 in 10.0 mi North 16.1 mph - N/A   Scattered Clouds
6:15 PM 39.2 °F 31.2 °F 23.0 °F 52% 30.12 in 10.0 mi North 13.8 mph 23.0 mph N/A   Mostly Cloudy
6:55 PM 37.4 °F 30.3 °F 24.8 °F 60% 30.12 in 10.0 mi North 10.4 mph - N/A   Mostly Cloudy
8:35 PM 37.4 °F 30.8 °F 24.8 °F 60% 30.11 in 10.0 mi North 9.2 mph - N/A   Scattered Clouds
8:55 PM 37.4 °F 31.4 °F 23.0 °F 56% 30.11 in 10.0 mi North 8.1 mph 18.4 mph N/A   Mostly Cloudy
9:15 PM 37.4 °F 29.3 °F 23.0 °F 56% 30.11 in 10.0 mi North 12.7 mph 17.3 mph N/A   Mostly Cloudy
9:55 PM 37.4 °F 30.3 °F 23.0 °F 56% 30.11 in 10.0 mi North 10.4 mph 19.6 mph N/A   Mostly Cloudy
10:15 PM 35.6 °F 26.6 °F 23.0 °F 60% 30.11 in 10.0 mi North 13.8 mph - N/A   Overcast
10:35 PM 35.6 °F 28.0 °F 21.2 °F 56% 30.11 in 10.0 mi NNW 10.4 mph - N/A   Overcast
10:55 PM 35.6 °F 27.1 °F 23.0 °F 60% 30.11 in 10.0 mi North 12.7 mph 18.4 mph N/A   Overcast
11:15 PM 35.6 °F 27.1 °F 23.0 °F 60% 30.10 in 10.0 mi North 12.7 mph 19.6 mph N/A   Scattered Clouds
11:35 PM 35.6 °F 25.9 °F 21.2 °F 56% 30.11 in 10.0 mi North 16.1 mph 21.9 mph N/A   Scattered Clouds
11:55 PM 35.6 °F 24.8 °F 19.4 °F 52% 30.11 in 10.0 mi North 19.6 mph 29.9 mph N/A   Scattered Clouds